Flag for Brazil Weather past 2 weeks in Santos, São Paulo, Brazil

Now
68 °F

Light rain. Mostly cloudy.


Feels Like: 68 °F
Forecast: 75 / 88 °F
Wind: 15 mph from Southeast

Location: Sao Paulo Airport

Current Time: Apr 21, 2015 at 6:47:20 PM

Latest Report: Apr 21, 2015 at 6:00 PM


Visibility: N/A

Pressure: 30.04 "Hg

Humidity: 83%

Dew point: 63 °F

Location of SantosLocation

Historic Weather in Santos — Graph

°F

Santos temperature yesterday

Maximum temperature yesterday: 84 °F (at 4:00 PM)
Minimum temperature yesterday: 68 °F (at 2:00 AM)
Average temperature yesterday: 76 °F

Past Weeks' High & Low Weather Summary

 TemperatureHumidityPressure
High84 °F (Apr 20, 4:00 PM)94% (Apr 7, 1:00 AM)30.24 "Hg (Apr 7, 1:00 AM)
Low57 °F (Apr 8, 2:00 AM)37% (Apr 11, 3:00 PM)29.95 "Hg (Apr 20, 3:00 PM)
Average69 °F76%30.10 "Hg
* Reported Apr 6 5:00 PM — Apr 21 5:00 PM, Santos, Weather by CustomWeather, © 2015

Note: Actual official high and low records may vary slightly from our data, if they occured in-between our weather recording intervals... More about our weather records

Advertising

Santos weather history for previous 24 hours

 ConditionsComfort  
Time TempWeatherWind HumidityBarometerVisibility
5:00 PM
Tue, Apr 21
70 °FMostly cloudy.15 mph83%30.04 "HgN/A
4:00 PM72 °FBroken clouds.16 mph83%30.01 "HgN/A
3:00 PM73 °FBroken clouds.15 mph78%30.01 "HgN/A
2:00 PM77 °FPartly sunny.14 mph74%30.01 "HgN/A
1:00 PM81 °FLight rain. Partly sunny.12 mph66%30.01 "HgN/A
12:00 PM79 °FThundershowers. Partly sunny.8 mph65%30.04 "HgN/A
11:00 AM82 °FPartly sunny.8 mph58%30.04 "HgN/A
10:00 AM81 °FPassing clouds.10 mph62%30.07 "HgN/A
9:00 AM77 °FSunny.8 mph69%30.04 "Hg10 mi
8:00 AM73 °FSunny.8 mph78%30.04 "Hg10 mi
7:00 AM73 °FPassing clouds.7 mph78%30.01 "HgN/A
6:00 AM73 °FSunny.2 mph78%29.98 "Hg10 mi
5:00 AM73 °FPassing clouds.8 mph78%29.98 "HgN/A
4:00 AM73 °FPassing clouds.5 mph78%29.98 "HgN/A
3:00 AM75 °FClear.7 mph74%29.98 "Hg10 mi
2:00 AM75 °FClear.3 mph74%30.01 "Hg10 mi
1:00 AM75 °FClear.6 mph74%29.98 "Hg10 mi
12:00 AM77 °FClear.7 mph69%30.01 "Hg10 mi
11:00 PM
Mon, Apr 20
77 °FClear.6 mph69%30.04 "Hg10 mi
10:00 PM77 °FClear.7 mph69%30.04 "Hg10 mi
9:00 PM79 °FClear.3 mph65%30.01 "Hg10 mi
8:00 PM79 °FClear.3 mph65%29.98 "Hg10 mi
7:00 PM81 °FPassing clouds.5 mph58%29.98 "HgN/A
6:00 PM81 °FPassing clouds.8 mph58%29.95 "HgN/A
Weather by CustomWeather, © 2015

See weather overviewHow to use our weather pages